[[{"header":{"parameterUnit":"m.s-1","parameterCategory":1,"la1":30.2991,"la2":30.254,"lo1":-89.0895,"lo2":-89.0444,"dy":0.0017,"dx":0.0017,"nx":28,"ny":28,"refTime":"2025-07-03T03:00:00:Z","depth":0,"parameterNumber":2,"parameterNumberName":"U-component_of_WINDS"},"data":[0,0,0,0,0,0,0,0,0,0,0,0,0,0,0,0,0,0,0,0,0,0,0,0,0,0,0,0,0,0,0,0,0,0,0,0,0,0,0,0,0,0,0,0,0,0,0,0,0,0,0,0,0,0,0,0,0,0,0.9175,0.9177,0,0.9313,0.9315,0.9316,0.9331,0.933,0.9329,0.9327,0.9475,0.948,0.9485,0,0,0,0,0,0,0,0,0,0,0,0,0,0.8932,0.8937,0.9175,0.9177,0.9179,0.9313,0.9315,0.9317,0.9332,0.933,0.9328,0.9327,0.9473,0.9479,0.9485,0,0,0,0,0,0,0,0,0,0,0,0,0,0.9051,0.8938,0.9175,0.9202,0.9206,0.9313,0.9315,0.9317,0.9332,0.933,0.9328,0.9326,0.9471,0.9479,0.9486,0.9577,0,0,0.951,0.9514,0,0,0,0,0,0,0,0,0.9044,0.906,0.9196,0.92,0.9205,0.9303,0.9283,0.9405,0.9333,0.9284,0.9327,0.9325,0.942,0.9432,0.9462,0.9584,0.9591,0.9511,0.9516,0.9519,0.9521,0,0,0,0,0,0,0,0.9036,0.9054,0.923,0.9198,0.9204,0.921,0.9225,0.9307,0.9362,0.9288,0.929,0.9306,0.9422,0.9455,0.9466,0.9593,0.9511,0.9518,0.9523,0.9526,0.9801,0.9804,0,0,0,0,0,0,0.9022,0.9047,0.9226,0.9234,0.9117,0.9216,0.9232,0.9274,0.9361,0.9373,0.9307,0.9306,0.9442,0.9457,0.9471,0.9586,0.9519,0.9527,0.9531,0.9799,0.9802,0.9805,0,0,0,0,0,0,0.9016,0.9037,0.922,0.9141,0.9165,0.9222,0.9269,0.9277,0.931,0.9376,0.9386,0.933,0.9441,0.946,0.9551,0.9592,0.953,0.9537,0.9796,0.98,0.9803,0.9815,0,0,0,0,0,0,0.9009,0.9035,0.9068,0.9142,0.9169,0.9295,0.9271,0.9282,0.9323,0.9323,0.94,0.9411,0.9441,0.954,0.9559,0.9601,0.9543,0.9792,0.9797,0.9802,0.9812,0.9819,0.9826,0,0,0,0,0,0.9001,0.9067,0.907,0.9091,0.9211,0.9298,0.9313,0.9345,0.9326,0.9362,0.9404,0.9409,0.9584,0.9549,0.9571,0.9616,0.979,0.9796,0.9802,0.9809,0.9818,0.9826,0,0,0,0,0,0,0.8998,0.9077,0.9081,0.9172,0.9228,0.93,0.9345,0.9353,0.9416,0.9413,0.9452,0.9469,0.956,0.9597,0.9557,0.9711,0.9686,0.9696,0.9683,0.9692,0.9699,0.9689,0.955,0,0,0,0,0,0.9008,0.9069,0.9136,0.921,0.9238,0.9287,0.9325,0.9345,0.9405,0.9429,0.9478,0.9538,0.9607,0.9652,0.9719,0.9817,0.9836,0.986,0.9867,0.9872,0.9881,0.994,0.9952,0.9824,0.9824,0.9824,0,0,0.9029,0.908,0.9116,0.9211,0.9256,0.9322,0.9306,0.9375,0.9426,0.944,0.953,0.9568,0.9638,0.9734,0.9779,0.9768,0.9921,0.9879,0.9883,0.989,0.9947,0.9959,0.997,0.9828,0.9827,0.9826,0,0,0.9102,0.9145,0.9213,0.9259,0.9328,0.936,0.9377,0.9448,0.9474,0.9564,0.9578,0.9639,0.9756,0.9806,0.9847,0.9943,0.9951,0.9964,1.0001,1.0057,1.0067,1.0077,1.0113,1.0126,0.9972,0.9972,0.9972,0,0.912,0.9217,0.9247,0.9317,0.936,0.9375,0.9447,0.9491,0.9579,0.9609,0.9595,0.9745,0.9793,0.9902,0.9926,0.9958,0.9981,0.9955,1.0063,1.0073,1.0082,1.0117,1.0131,0.9974,0.9974,0.9973,0.9973,0,0.9237,0.9305,0.9352,0.9436,0.9484,0.9554,0.9598,0.9644,0.9661,0.9696,0.979,0.9848,0.9928,0.9956,0.9972,1.007,1.0061,1.0055,1.003,1.0095,1.0129,1.0143,0.9976,0.9975,0.9975,0.9974,0,0,0.931,0.9412,0.9429,0.9468,0.9547,0.9601,0.9674,0.9751,0.9791,0.9853,0.9917,1.0017,1.0012,1.0059,1.0082,1.0132,1.0208,1.012,1.0122,1.0136,1.0322,1.0327,1.0342,1.0213,1.0216,1.0218,1.0317,0,0.9394,0.9521,0.9552,0.9663,0.9728,0.9745,0.9809,0.9866,0.9902,0.9964,1.0005,1.0076,1.0063,1.0092,1.0142,1.0187,1.0246,1.0181,1.0276,1.0279,1.0259,1.036,1.0365,1.0455,1.033,1.0333,1.0334,0,0.9507,0.957,0.9686,0.9759,0.9788,0.9844,0.992,0.9978,1.0045,1.0068,1.0121,1.014,1.0221,1.0191,1.0304,1.026,1.0301,1.033,1.0334,1.0345,1.0311,1.0376,1.0485,1.0499,1.0355,1.0353,1.0352,0,0.9551,0.9665,0.9751,0.9784,0.9871,0.9911,0.9949,1.0014,1.0059,1.0126,1.0157,1.0233,1.0275,1.0335,1.0375,1.035,1.0487,1.046,1.051,1.051,1.0539,1.0537,1.0658,1.0563,1.0563,1.0562,1.0562,0,0.9641,0.9713,0.9772,0.9825,0.9907,0.9944,1.0024,1.0064,1.0122,1.0185,1.0205,1.0264,1.0313,1.038,1.0413,1.0503,1.0522,1.0545,1.0553,1.0544,1.0541,1.0572,1.0568,1.0566,1.0565,1.0565,1.0564,0,0.9705,0.9747,0.9842,0.9917,0.9937,0.9995,1.006,1.0114,1.0151,1.0231,1.0252,1.0311,1.0392,1.0438,1.0539,1.0561,1.0663,1.0667,1.064,1.0644,1.0693,1.0688,1.0839,1.0863,1.075,1.0751,1.0752,0,0.976,0.9815,0.9896,0.9939,0.9978,1.0047,1.0094,1.0134,1.0183,1.0265,1.031,1.0391,1.0458,1.0587,1.064,1.0719,1.0727,1.0775,1.0739,1.0729,1.073,1.0727,1.0734,1.0781,1.0782,1.0783,1.0783,0,0.9854,0.9873,0.9939,1.0013,1.0069,1.0129,1.019,1.0225,1.0276,1.033,1.0412,1.0464,1.0568,1.065,1.0734,1.0777,1.079,1.0794,1.0811,1.0802,1.0785,1.0798,1.0658,1.0791,1.079,1.0789,1.0789,1.0789,0.9917,0.9968,1.0034,1.0108,1.0157,1.0214,1.0269,1.0314,1.0382,1.0469,1.0489,1.0576,1.0646,1.0759,1.0805,1.0876,1.0868,1.0891,1.0897,1.0902,1.0905,1.0773,1.0891,1.0891,1.0891,1.0891,1.0891,0,1.0014,1.0058,1.0125,1.0209,1.0269,1.0274,1.0343,1.0393,1.0468,1.0531,1.0597,1.0693,1.0773,1.0834,1.0918,1.0963,1.0971,1.0984,1.0981,1.0992,1.0906,1.0885,1.0976,1.0976,1.0976,1.0976,1.0975,1.0975,1.0071,1.0159,1.0186,1.0301,1.0345,1.0429,1.0468,1.0522,1.0573,1.0679,1.0745,1.0784,1.0848,1.0936,1.1011,1.1028,1.1058,1.107,1.1087,1.1007,1.0997,1.0989,1.0969,1.1076,1.1076,1.1167,1.1168,1.1169]},{"header":{"parameterUnit":"m.s-1","parameterCategory":1,"la1":30.2991,"la2":30.254,"lo1":-89.0895,"lo2":-89.0444,"dy":0.0017,"dx":0.0017,"nx":28,"ny":28,"refTime":"2025-07-03T03:00:00:Z","depth":0,"parameterNumber":3,"parameterNumberName":"V-component_of_WINDS"},"data":[0,0,0,0,0,0,0,0,0,0,0,0,0,0,0,0,0,0,0,0,0,0,0,0,0,0,0,0,0,0,0,0,0,0,0,0,0,0,0,0,0,0,0,0,0,0,0,0,0,0,0,0,0,0,0,0,0,0,-0.3813,-0.3811,0,-0.3687,-0.3686,-0.3685,-0.3764,-0.3767,-0.3771,-0.3775,-0.3643,-0.3637,-0.363,0,0,0,0,0,0,0,0,0,0,0,0,0,-0.412,-0.4114,-0.3813,-0.3811,-0.381,-0.3688,-0.3686,-0.3684,-0.3763,-0.3768,-0.3772,-0.3776,-0.3646,-0.3637,-0.3629,0,0,0,0,0,0,0,0,0,0,0,0,0,-0.399,-0.4112,-0.3813,-0.3834,-0.3835,-0.3688,-0.3686,-0.3684,-0.3762,-0.3768,-0.3773,-0.3778,-0.3648,-0.3638,-0.3628,-0.3452,0,0,-0.3596,-0.3592,0,0,0,0,0,0,0,0,-0.3997,-0.3979,-0.3833,-0.3833,-0.3833,-0.3747,-0.3747,-0.3606,-0.3761,-0.379,-0.3775,-0.3781,-0.3673,-0.3661,-0.3625,-0.3446,-0.344,-0.3595,-0.3589,-0.3584,-0.3581,0,0,0,0,0,0,0,-0.4006,-0.3984,-0.3763,-0.383,-0.3831,-0.385,-0.3838,-0.372,-0.3702,-0.3788,-0.3793,-0.3777,-0.3674,-0.3635,-0.3623,-0.3439,-0.3595,-0.3586,-0.358,-0.3576,-0.3114,-0.3108,0,0,0,0,0,0,-0.4014,-0.3991,-0.3767,-0.3759,-0.3931,-0.384,-0.3826,-0.3769,-0.3703,-0.3698,-0.3773,-0.3781,-0.365,-0.3635,-0.3618,-0.3411,-0.3584,-0.3575,-0.3569,-0.312,-0.3113,-0.3106,0,0,0,0,0,0,-0.402,-0.3993,-0.3772,-0.3877,-0.385,-0.3829,-0.3764,-0.3763,-0.3724,-0.3692,-0.3689,-0.3736,-0.3654,-0.3633,-0.3494,-0.3408,-0.357,-0.3561,-0.3127,-0.3118,-0.3109,-0.2993,0,0,0,0,0,0,-0.4029,-0.3995,-0.3927,-0.3875,-0.3844,-0.3649,-0.3758,-0.3757,-0.3707,-0.3717,-0.3657,-0.3652,-0.3657,-0.3509,-0.3484,-0.3396,-0.3552,-0.3135,-0.3123,-0.3112,-0.3004,-0.2981,-0.2961,0,0,0,0,0,-0.4039,-0.3898,-0.3923,-0.3896,-0.3759,-0.3644,-0.3627,-0.3636,-0.3699,-0.3632,-0.3612,-0.3654,-0.3422,-0.3495,-0.3466,-0.3374,-0.314,-0.3126,-0.3113,-0.3014,-0.2986,-0.2962,0,0,0,0,0,0,-0.3937,-0.3891,-0.3919,-0.3756,-0.3704,-0.3658,-0.3572,-0.3605,-0.3532,-0.3544,-0.3559,-0.3544,-0.34,-0.3373,-0.3455,-0.3203,-0.3291,-0.3271,-0.3225,-0.3198,-0.3177,-0.3186,-0.3544,0,0,0,0,0,-0.3897,-0.3807,-0.3771,-0.3631,-0.3604,-0.3592,-0.3542,-0.3555,-0.35,-0.3478,-0.3448,-0.3393,-0.3309,-0.3252,-0.3172,-0.3002,-0.2991,-0.2925,-0.2904,-0.2886,-0.2868,-0.278,-0.2751,-0.3062,-0.3062,-0.3062,0,0,-0.381,-0.3774,-0.3716,-0.361,-0.3571,-0.3478,-0.3573,-0.347,-0.3402,-0.3462,-0.333,-0.3306,-0.3247,-0.3093,-0.3023,-0.3066,-0.2781,-0.2869,-0.2855,-0.2847,-0.2763,-0.2734,-0.2708,-0.3053,-0.3054,-0.3056,0,0,-0.3606,-0.3568,-0.3449,-0.3409,-0.335,-0.3345,-0.3316,-0.3266,-0.3253,-0.3122,-0.3166,-0.3086,-0.2938,-0.2896,-0.2854,-0.264,-0.2677,-0.2613,-0.2499,-0.2413,-0.2389,-0.2367,-0.2293,-0.2266,-0.2596,-0.2596,-0.2596,0,-0.3505,-0.3368,-0.3383,-0.3279,-0.3232,-0.3286,-0.3166,-0.3126,-0.3043,-0.301,-0.306,-0.288,-0.2843,-0.2681,-0.263,-0.2594,-0.2563,-0.2619,-0.2391,-0.237,-0.235,-0.2279,-0.2251,-0.2589,-0.2589,-0.259,-0.2591,0,-0.3248,-0.3153,-0.3064,-0.2986,-0.2929,-0.2817,-0.2817,-0.2758,-0.2777,-0.2766,-0.2633,-0.2592,-0.2507,-0.247,-0.2485,-0.2311,-0.234,-0.239,-0.2478,-0.2313,-0.2247,-0.2219,-0.2578,-0.2581,-0.2583,-0.2585,0,0,-0.2972,-0.2908,-0.2875,-0.2842,-0.2783,-0.271,-0.2602,-0.252,-0.247,-0.2413,-0.2324,-0.2201,-0.2249,-0.2202,-0.2214,-0.2138,-0.1975,-0.2199,-0.2198,-0.216,-0.1783,-0.1746,-0.1714,-0.2,-0.1995,-0.1991,-0.1789,0,-0.2765,-0.2578,-0.2591,-0.2415,-0.2328,-0.2381,-0.2288,-0.2242,-0.2231,-0.2156,-0.2144,-0.2057,-0.2126,-0.2099,-0.2027,-0.201,-0.1899,-0.2024,-0.1918,-0.1914,-0.1931,-0.1679,-0.1638,-0.1449,-0.1763,-0.1759,-0.1755,0,-0.2497,-0.2434,-0.2249,-0.2208,-0.2172,-0.2088,-0.2017,-0.1945,-0.1895,-0.1893,-0.1844,-0.187,-0.1763,-0.1855,-0.171,-0.1795,-0.1752,-0.1738,-0.1731,-0.1721,-0.1824,-0.1663,-0.1389,-0.1361,-0.1714,-0.1718,-0.172,0,-0.2316,-0.2184,-0.2058,-0.2028,-0.1976,-0.1916,-0.1892,-0.1848,-0.18,-0.1738,-0.1707,-0.1633,-0.1592,-0.1534,-0.1541,-0.1607,-0.1393,-0.1485,-0.1389,-0.1389,-0.134,-0.1343,-0.1056,-0.1313,-0.1313,-0.1314,-0.1314,0,-0.2083,-0.1968,-0.1977,-0.1898,-0.1773,-0.1791,-0.1666,-0.1649,-0.1611,-0.1531,-0.1572,-0.1497,-0.151,-0.1435,-0.144,-0.132,-0.1301,-0.1297,-0.1299,-0.1293,-0.1293,-0.1265,-0.1278,-0.1306,-0.1308,-0.1309,-0.131,0,-0.1858,-0.1859,-0.1725,-0.1689,-0.1677,-0.1586,-0.1556,-0.1483,-0.1478,-0.1377,-0.1355,-0.1345,-0.126,-0.1262,-0.1163,-0.1167,-0.102,-0.1038,-0.1037,-0.1041,-0.0945,-0.0954,-0.063,-0.0589,-0.0871,-0.0868,-0.0866,0,-0.1709,-0.1623,-0.1579,-0.153,-0.1503,-0.1422,-0.1374,-0.139,-0.1339,-0.128,-0.1215,-0.1134,-0.107,-0.0932,-0.0916,-0.0843,-0.0859,-0.0751,-0.0848,-0.0846,-0.0859,-0.0864,-0.0857,-0.0731,-0.0728,-0.0725,-0.0723,0,-0.1445,-0.1452,-0.1381,-0.1312,-0.1255,-0.1201,-0.1151,-0.1109,-0.112,-0.106,-0.0975,-0.0926,-0.0829,-0.0748,-0.0679,-0.0655,-0.0691,-0.0693,-0.0667,-0.066,-0.0664,-0.0662,-0.0986,-0.07,-0.0702,-0.0704,-0.0705,-0.0706,-0.1254,-0.1182,-0.1141,-0.1063,-0.1029,-0.0983,-0.0914,-0.0902,-0.0831,-0.0754,-0.0768,-0.0673,-0.0631,-0.0542,-0.0512,-0.0439,-0.0477,-0.0439,-0.0429,-0.042,-0.041,-0.0676,-0.0426,-0.0427,-0.0428,-0.0428,-0.0429,0,-0.0994,-0.0972,-0.09,-0.0832,-0.0771,-0.0813,-0.0762,-0.0708,-0.0625,-0.0583,-0.0521,-0.0425,-0.0349,-0.033,-0.0257,-0.0203,-0.0218,-0.0183,-0.0187,-0.0182,-0.0379,-0.0409,-0.0172,-0.0172,-0.0172,-0.0172,-0.0173,-0.0173,-0.0851,-0.0732,-0.0734,-0.0599,-0.0578,-0.0486,-0.0454,-0.0413,-0.038,-0.0272,-0.021,-0.0199,-0.0167,-0.0094,-0.0027,-0.0023,0.0005,0.0046,0.0043,-0.0141,-0.0167,-0.0191,-0.022,0.0053,0.0053,0.0234,0.0236,0.0237]}]]